Location: Ch?enovice
(49.7164°N, 15.2160°E)
Time: 21:11:49
(UTC+00:00)

Cosmos 1908 Rocket - Pass Details

Date: 23 May 2024
Orbit: 602 x 629 km, 82.5° (Epoch: 22 June)

Event Time Altitude Azimuth Distance (km) Brightness Sun altitude
Rises 00:13:22 0° 350° (N) 2,924 8.1 -17.6°
Reaches altitude 10° 00:15:37 10° 352° (N) 2,009 7.1 -17.5°
Maximum altitude 00:20:05 80° 79° (E) 637 3.6 -17.2°
Enters shadow 00:22:29 27° 164° (SSE) 1,203 4.6 -17.1°
